Location: Hall+in+Tirol
(47.2830°N, 11.5170°E)
Time: 00:58:22
(UTC+01:00)

Daily predictions for brighter satellites

Satellite Brightness Start Highest point End
(mag) Time Altitude Azimuth Time Altitude Azimuth Time Altitude Azimuth
Cosmos 2297 Rocket 4.4 00:22:52 10° NNW 00:24:32 20° NNW 00:24:32 20° NNW
SL-16 R/B 4.4 01:02:01 23° ENE 01:02:33 23° NE 01:07:15 10° N
Cosmos 1980 Rocket 4.4 01:16:51 19° ENE 01:16:51 19° ENE 01:18:44 10° NE
Cosmos 2263 Rocket 4.2 01:22:03 10° N 01:26:21 22° NE 01:27:06 21° NE
CENTAUR R/B 4.2 01:34:39 26° E 01:34:39 26° E 01:38:20 10° NE
USA 215 4.1 01:36:46 10° E 01:42:57 46° NNE 01:49:08 10° NW
CZ-4C R/B 4.5 01:42:39 18° NW 01:44:40 20° N 01:49:31 10° NE
ATLAS 3B R/B 3.9 01:50:37 34° NW 01:51:00 34° NNW 01:57:24 10° NNE
NOSS 3-2 (A) 4.3 02:19:01 46° NNW 02:19:01 46° NNW 02:24:53 10° NE
Cosmos 2322 Rocket 3.3 02:26:16 37° E 02:26:16 37° E 02:30:31 10° NE
ARIANE 5 R/B 3.7 02:24:03 10° NNE 02:27:41 39° ENE 02:27:41 39° ENE
SL-16 R/B 3.2 02:30:33 40° E 02:30:33 40° E 02:35:04 10° NE
Cosmos 2315 Rocket 4.4 02:38:35 54° ESE 02:38:57 55° E 02:45:01 10° NNE
Cosmos 1697 Rocket 3.8 02:40:51 36° NNW 02:40:51 36° NNW 02:44:50 10° NNE
SL-16 R/B 2.9 02:47:06 53° NNW 02:47:06 53° NNW 02:51:50 10° NNW
COSMOS 2455 4.3 02:46:03 26° NW 02:46:03 26° NW 02:51:02 10° NNE
CZ-2D R/B 2.6 02:41:58 10° NNE 02:46:42 62° NE 02:46:42 62° NE
Resurs 1-4 Rocket 2.6 02:44:15 10° NNE 02:48:34 58° NE 02:48:34 58° NE
Lacrosse 4 Rocket 3.5 02:46:44 10° NNW 02:50:17 26° NE 02:53:53 10° ESE
IRS-1D 4.2 02:46:35 10° NNE 02:50:14 49° NNE 02:50:14 49° NNE
Cosmos 1709 Rocket 3.9 02:47:56 10° N 02:53:52 81° N 02:53:52 81° N
Cosmos 2360 Rocket 3.6 02:55:46 27° SE 02:57:00 29° ESE 03:01:50 10° NE
Cosmos 1980 Rocket 2.9 02:58:36 44° NNW 02:58:36 44° NNW 03:03:10 10° NNE
NOSS 3-2 (C) 4.5 03:05:43 34° NW 03:06:42 36° NNW 03:13:03 10° NE
Gblst 52 Del rocket 4.2 03:09:02 76° NNW 03:09:18 78° NNE 03:15:22 10° ESE
Cosmos 883 Rocket 4.4 03:09:37 69° WNW 03:09:37 69° WNW 03:15:41 10° N
Cosmos 2263 Rocket 3.0 03:05:20 10° NNW 03:08:43 38° NW 03:08:43 38° NW
CZ-2D R/B 4.2 03:10:07 10° NNE 03:13:59 55° ENE 03:13:59 55° ENE
ATLAS 5 CENTAUR R/B 4.2 03:09:48 10° NNW 03:14:39 27° NNE 03:19:53 10° E
ADEOS II 4.2 03:11:25 10° NE 03:15:33 23° E 03:19:39 10° SE
ADEOS Rocket 2.6 03:13:05 10° NNE 03:18:44 85° WNW 03:18:54 83° WSW
Meteor 1-5 Rocket 4.4 03:14:05 10° NNW 03:18:10 52° NW 03:18:10 52° NW
CENTAUR R/B 2.6 03:21:49 57° W 03:22:41 62° NW 03:29:45 10° NE
USA 215 3.1 03:19:04 10° SE 03:25:39 88° SW 03:32:16 10° NW
Orbus 7S? 4.5 03:24:30 56° W 03:25:43 69° NW 03:29:53 10° NE
BREEZE M DEB (TANK) 4.4 03:08:56 10° W 03:30:42 81° N 03:35:59 10° E
Cosmos 1812 3.4 03:31:49 53° NE 03:31:49 53° NE 03:35:05 10° NNE
Cosmos 2322 4.5 03:29:32 32° SSE 03:31:42 48° ESE 03:37:11 10° NE
CZ-4B R/B 4.3 03:36:07 10° NE 03:39:20 30° E 03:40:27 25° SE
ADEOS 4.2 03:34:40 10° N 03:39:11 40° NW 03:39:11 40° NW
Cosmos 1340 3.8 03:41:43 36° SE 03:42:27 41° E 03:46:03 10° NNE
Cosmos 2184 Rocket 3.9 03:36:22 10° N 03:42:36 89° E 03:48:42 11° S
Cosmos 1544 Rocket 3.5 03:39:45 10° N 03:44:14 87° ENE 03:44:54 65° SSE
SL-8 R/B 3.7 03:47:20 61° WNW 03:48:06 77° N 03:52:53 10° E
UNKNOWN OBJECT B 4.0 03:46:39 10° N 03:48:54 31° NNW 03:48:54 31° NNW
Tiangong 2 3.6 03:52:22 15° SE 03:52:22 15° SE 03:53:07 10° ESE
Cosmos 1743 4.3 03:48:11 10° N 03:51:47 35° ENE 03:55:20 10° SE
CZ-4B R/B 4.0 03:52:36 10° NNE 03:58:08 51° E 04:03:32 10° S
Okean O Rocket 2.1 03:55:02 10° NNE 03:59:26 60° ESE 04:02:02 24° S
COBE Rocket 4.4 03:59:55 10° N 04:04:44 43° WNW 04:05:28 41° W
EO 1 Del DPAF 3.3 04:02:57 10° SSE 04:06:48 79° ENE 04:10:41 10° N
ARIANE 5 R/B 3.7 04:03:42 10° N 04:07:53 26° WNW 04:08:03 26° WNW
Cosmos 2322 Rocket 2.9 04:08:05 33° W 04:09:23 37° NW 04:14:36 10° NNE
SL-16 R/B 3.0 04:12:25 31° W 04:13:56 36° NW 04:19:10 10° NNE
Okean 1 3.2 04:13:07 47° SSW 04:14:09 71° W 04:18:14 10° N
Cosmos 2237 4.4 04:11:50 20° SSW 04:15:51 71° ESE 04:21:35 10° NNE
Cosmos 2154 Rocket 4.0 04:10:08 10° N 04:16:22 87° ENE 04:22:34 10° S
Cosmos 1455 Rocket 3.2 04:13:48 10° NNW 04:18:04 51° W 04:19:35 34° SSW
COSMOS 2428 3.2 04:14:57 14° S 04:19:47 60° ESE 04:25:24 10° NNE
Cosmos 1570 Rocket 4.2 04:15:58 17° S 04:19:59 70° ESE 04:25:13 10° NNE
Cosmos 1500 3.4 04:17:14 10° NNW 04:20:56 46° W 04:21:04 46° W
Cosmos 1898 Rocket 4.3 04:16:40 10° NNW 04:21:47 53° ENE 04:26:51 10° SE
Cosmos 1975 3.0 04:18:55 10° NNW 04:22:50 46° W 04:23:42 39° SW
IRS-1C Rocket 4.1 04:17:46 10° NNE 04:23:04 84° ESE 04:28:09 11° SSW
Cosmos 2219 Rocket 3.5 04:18:37 10° S 04:23:43 38° ESE 04:28:50 10° NE
CZ-2D R/B 3.6 04:23:01 10° NNW 04:27:00 21° WNW 04:28:02 20° WNW
Cosmos 1975 Rocket 4.2 04:27:06 25° WNW 04:27:06 25° WNW 04:30:36 10° NNW
Resurs 1-4 Rocket 3.6 04:25:14 10° NNW 04:28:49 19° WNW 04:29:40 18° WNW
Cosmos 1844 Rocket 2.6 04:23:17 10° NNW 04:28:55 83° WSW 04:34:28 10° SSE
Lacrosse 4 Rocket 1.7 04:25:11 10° NW 04:29:07 41° WSW 04:33:07 10° S
SL-16 R/B 4.4 04:32:10 12° WNW 04:32:10 12° WNW 04:33:01 10° WNW
USA 116 4.5 04:28:27 10° SSE 04:32:41 66° ENE 04:37:30 10° N
PSLV R/B 4.0 04:30:57 10° N 04:34:32 44° WNW 04:35:42 32° WSW
Meteor 1-19 Rocket 4.5 04:30:17 10° S 04:35:53 73° E 04:41:38 10° NNE
MTI 4.1 04:36:43 26° SSW 04:38:09 44° W 04:41:20 10° NNW
Cosmos 2181 Rocket 4.3 04:34:08 10° S 04:40:17 69° E 04:46:35 10° NNE
Cosmos 2360 Rocket 2.5 04:37:33 24° WSW 04:40:46 49° WNW 04:46:16 10° NNE
Cosmos 2278 Rocket 2.9 04:35:26 10° NNW 04:41:03 58° ENE 04:46:38 10° SE
ERS-2 2.9 04:38:16 10° NNE 04:41:55 53° ESE 04:45:32 10° S
Nadezhda 1 Rocket 4.1 04:37:28 13° SSW 04:42:44 53° WNW 04:48:41 10° N
Cosmos 1980 Rocket 4.3 04:40:41 10° WNW 04:43:08 13° NNW 04:45:37 10° N
MOS 1 Rocket 4.0 04:39:17 10° N 04:43:37 35° WNW 04:45:46 23° WSW
Cosmos 1536 Rocket 3.9 04:43:44 19° SW 04:46:39 45° WNW 04:50:59 10° N
Cosmos 2237 Rocket 3.7 04:44:34 10° S 04:49:43 37° ESE 04:54:55 10° NE
Meteor 2-4 Rocket 4.0 04:45:59 10° S 04:51:32 71° E 04:56:58 10° NNE
Cosmos 1937 Rocket 3.9 04:47:46 10° NNW 04:53:07 70° ENE 04:58:24 10° SSE
Cosmos 2341 Rocket 4.0 04:48:54 10° NNW 04:55:07 66° W 05:01:15 10° S
ADEOS II 2.2 04:50:28 10° N 04:55:36 55° WNW 05:00:43 10° SW
PAYLOAD B 4.4 04:50:54 10° N 04:56:22 54° WNW 05:01:48 10° SW
PSLV R/B 3.8 04:53:33 10° N 04:57:44 49° WNW 05:01:57 10° SW
Cosmos 1238 Rocket 2.3 04:57:06 16° SSW 04:59:14 45° WNW 05:02:08 10° N
ATLAS 5 CENTAUR R/B 2.4 04:54:10 10° NW 05:00:06 88° NE 05:06:34 10° SE
Okean 1-7 Rocket 3.6 04:57:05 10° S 05:01:37 88° WNW 05:06:07 10° N
Cosmos 2218 Rocket 4.3 04:56:55 10° N 05:03:22 78° E 05:09:42 10° SSE
ADEOS Rocket 4.5 05:00:20 10° NNW 05:03:24 15° NW 05:05:51 12° W
Cosmos 2298 Rocket 4.0 05:00:57 10° NNW 05:06:18 77° WSW 05:11:37 10° SSE
Okean 2 4.1 05:03:05 10° S 05:07:10 60° E 05:11:18 10° NNE
Cosmos 2333 Rocket 2.6 05:02:09 10° SSW 05:07:47 67° ESE 05:13:30 10° NNE
USA 215 4.0 05:03:38 10° S 05:09:12 29° SW 05:14:48 10° WNW
CZ-4B R/B 4.1 05:09:26 10° N 05:13:57 80° WNW 05:18:27 10° SSW
CZ-4B R/B 4.0 05:11:38 10° NNW 05:14:24 21° WNW 05:16:38 13° WSW
CENTAUR R/B 4.1 05:09:23 10° WNW 05:14:52 26° NNW 05:20:57 10° NE
Cosmos 1606 Rocket 3.6 05:10:38 10° N 05:15:08 90° W 05:19:37 10° S
Cosmos 1814 Rocket 4.4 05:12:12 10° S 05:17:20 66° ESE 05:22:28 10° NNE
Cosmos 1340 4.4 05:16:36 13° W 05:18:22 17° WNW 05:20:53 10° NNW
USA 229 DEB 3.9 05:13:19 10° SSW 05:20:09 79° SE 05:27:09 10° NE
USA 229 3.9 05:13:26 10° SSW 05:20:15 78° SE 05:27:15 10° NE
Cosmos 405 Rocket 2.9 05:17:06 10° S 05:21:10 85° E 05:25:12 10° NNE
Cosmos 1666 3.4 05:19:49 10° NNW 05:23:18 32° W 05:26:46 10° SSW
CZ-4C R/B 3.9 05:19:15 10° NW 05:25:52 48° NE 05:33:16 10° ESE
Tiangong 2 3.1 05:24:29 10° WSW 05:26:22 15° SSW 05:28:18 10° SSE
Cosmos 1743 4.1 05:24:36 10° NW 05:27:22 19° W 05:30:06 10° SW
SL-8 R/B 3.8 05:25:56 10° WNW 05:30:41 67° SSW 05:35:25 10° ESE
Meteor 1-31 Rocket 3.0 05:27:23 10° N 05:31:03 45° WNW 05:34:41 10° SW
Geosat 4.0 05:26:09 10° SSE 05:31:11 84° WSW 05:36:15 10° NNW
Cosmos 1867 3.7 05:26:21 10° NW 05:31:39 53° WSW 05:36:54 10° SSE
Cosmos 2285 Rocket 4.1 05:25:58 10° SSW 05:32:24 78° WNW 05:38:53 10° NNE
Cosmos 1844 4.3 05:27:51 10° NW 05:33:03 36° WSW 05:38:10 10° S
NOSS 0 Rocket 4.0 05:28:58 10° SSW 05:35:10 89° ESE 05:41:22 10° NNE
Okean O Rocket 3.2 05:32:25 10° NNW 05:35:22 18° WNW 05:38:21 10° WSW
ATLAS 3B R/B 4.5 05:31:16 10° NNW 05:37:09 27° NNE 05:42:46 10° E
Radarsat Rocket 4.2 05:31:46 10° NNE 05:37:51 78° ESE 05:43:40 10° SSW
CZ-4B R/B 4.2 05:33:38 10° N 05:38:25 29° WNW 05:43:09 10° WSW
Cosmos 1437 2.8 05:36:01 10° SSW 05:39:16 61° WNW 05:42:32 10° N
